Regional Weather Roundup
Issued by NWS

Home | Current Version | Previous Version | Text Only | Print | Product List | Glossary On
Versions: 1 2 3 4 5 6 7 8 9 10 11 12 13 14 15 16 17 18 19 20 21 22 23 24 25 26 27 28 29 30 31 32 33 34 35 36 37 38 39 40 41 42 43 44 45 46 47 48 49 50
000
ASUS44 KOUN 241600
RWROK

WEATHER ROUNDUP FOR OKLAHOMA
NATIONAL WEATHER SERVICE NORMAN OK
1100 AM CDT SUN SEP 24 2017

NOTE: "FAIR" INDICATES FEW OR NO CLOUDS BELOW 12,000 FEET WITH NO
      SIGNIFICANT WEATHER AND/OR OBSTRUCTIONS TO VISIBILITY.

OKZ001>007-009>012-014-015-017-241700-
NORTHWEST OKLAHOMA AND THE PANHANDLE

CITY           SKY/WX    TMP DP  RH WIND       PRES   REMARKS
GAGE           PTSUNNY   74  64  71 S18G28    29.93R
GUYMON         CLOUDY    66  66 100 SE9       29.90F
$$

OKZ016-021>023-033>039-044-045-241700-
SOUTHWEST OKLAHOMA

CITY           SKY/WX    TMP DP  RH WIND       PRES   REMARKS
LAWTON/REGL    PTSUNNY   82  69  64 S12       29.94S
LAWTON/FT SILL MOSUNNY   80  71  72 S10       29.93S
FREDERICK      CLOUDY    81  68  64 S13       29.90F
CLINTON        CLOUDY    76  64  66 S16       29.96S
HOBART         CLOUDY    79  66  64 S21       29.94S
ALTUS AFB      CLOUDY    78  66  65 SE14      29.92F
$$

OKZ018>020-024>031-241700-
CENTRAL OKLAHOMA

CITY           SKY/WX    TMP DP  RH WIND       PRES   REMARKS
OKLAHOMA CITY  MOSUNNY   82  67  60 S18G26    29.96S
OKC/WILEY POST SUNNY     82  68  62 S16G24    29.95S
OKC/TINKER AFB MOSUNNY   80  68  65 S13       29.96S
STILLWATER     PTSUNNY   82  67  60 S13       29.96S
GUTHRIE        SUNNY     84  67  56 S17G23    29.95S
$$

OKZ008-013-054>072-241700-
NORTHEAST OKLAHOMA

CITY           SKY/WX    TMP DP  RH WIND       PRES   REMARKS
TULSA          MOSUNNY   83  69  62 S10       29.95S
TULSA/JONES    SUNNY     84  69  60 S8        29.97R
PONCA CITY     MOSUNNY   82  67  60 S8        29.95S
MUSKOGEE       SUNNY     83  70  64 S8        29.99R
$$

OKZ032-040>043-046>053-073>077-241700-
SOUTH CENTRAL/SOUTHEAST OKLAHOMA

CITY           SKY/WX    TMP DP  RH WIND       PRES   REMARKS
MCALESTER      MOSUNNY   84  71  65 S7        29.99R
$$




USA.gov is the U.S. government's official web portal to all federal, state and local government web resources and services.